User: anonymous   Login
Location: Bazugues
(43.4465°N, 0.3432°E)
Time: 04:37:22
(UTC+00:00)
Language:

Cosmos 304 Rocket - Orbit

View from above orbital plane
View from above orbital plane
View from above satellite
View from above satellite

Ground track
Ground track

The orbit is defined by the following mean orbital elements,

1 04139U          26069.52352743 +.00000000 +00000-0 +14102-3 0 00005
2 04139  74.0295 103.4339 0003565 106.1228 254.0334 14.66476522    02
Epoch (UTC): 10 March 2026 12:33:52
Eccentricity: 0.0003565
inclination: 74.0295°
perigee height: 670 km
apogee height: 675 km
right ascension of ascending node: 103.4339°
argument of perigee: 106.1228°
revolutions per day: 14.66476522
mean anomaly at epoch: 254.0334°

The dashed part of the orbit path shows where the satellite is in the earth's shadow,  

DLR